Weather Roundup
Issued by NWS Springfield, MO

Home | Current Version | Previous Version | Text Only | Print | Product List | Glossary On
Versions: 1 2 3 4 5 6 7 8 9 10 11 12 13 14 15 16 17 18 19 20 21 22 23 24 25 26 27 28 29 30 31 32 33 34 35 36 37 38 39 40 41 42 43 44 45 46 47 48 49 50
000
NZUS99 KSGF 230359
HRRSGF

HOURLY WEATHER
NATIONAL WEATHER SERVICE SPRINGFIELD MO
1100 PM CDT FRI MAY 22 2015

......SGF CWA......

CITY           SKY/WX    TMP DP  RH WIND       PRES   REMARKS
SPRINGFIELD    CLOUDY    61  49  64 SE12      30.22R
JOPLIN         CLOUDY    61  50  67 E8        30.21R
WEST PLAINS    CLOUDY    60  47  61 SE5       30.26R
ROLLA          CLOUDY    61  54  77 E3        30.24S
OSAGE BEACH    CLOUDY    63  52  67 CALM      30.24S

......SURROUNDING SGF CWA......

CITY           SKY/WX    TMP DP  RH WIND       PRES   REMARKS
CHANUTE        CLOUDY    60  52  74 E7        30.19R
PARSONS        CLOUDY    61  55  81 CALM      30.20R
COFFEYVILLE    CLOUDY    61  55  81 S5        30.19R
EMPORIA        CLOUDY    57  51  80 SE5       30.19R
GROVE OK       CLOUDY    63  55  77 CALM      30.21R
SILOAM SPRINGS MOCLDY    55  46  71 SE6       30.23R
HARRISON AR    PTCLDY    57  49  74 SE9       30.24R
NEAR YELLVILLE PTCLDY    59  48  67 CALM      30.22R

......KANSAS AND MISSOURI......

CITY           SKY/WX    TMP DP  RH WIND       PRES   REMARKS
KANSAS CTY INT CLOUDY    60  51  72 SE7       30.21R
DOWNTOWN KC    CLOUDY    63  50  62 SE5       30.21R
COLUMBIA       CLOUDY    63  53  70 E6        30.24F
SEDALIA        CLOUDY    63  54  72 SE7       30.24S
ST JOSEPH      CLOUDY    60  50  69 CALM      30.22R
ST LOUIS       CLOUDY    67  51  56 CALM      30.26S
SPIRIT OF STL  CLOUDY    61  58  90 CALM      30.25S
KIRKSVILLE     CLOUDY    56  54  93 CALM      30.25R
WICHITA        CLOUDY    55  52  89 SE13      30.16R
TOPEKA         CLOUDY    61  51  70 E7        30.20R
OLATHE         CLOUDY    60  52  74 SE7       30.21R

......TENNESSEE......

CITY           SKY/WX    TMP DP  RH WIND       PRES   REMARKS
MEMPHIS        FAIR      65  49  56 E8        30.24S
NASHVILLE      MOCLDY    63  48  58 NE3       30.28S

......ARKANSAS.......

CITY           SKY/WX    TMP DP  RH WIND       PRES   REMARKS
FAYETTEVILLE   PTCLDY    54  52  93 CALM      30.22R
FT SMITH       CLOUDY    60  55  83 E7        30.20R
LITTLE ROCK    CLOUDY    66  53  63 SE5       30.21R

......OKLAHOMA.......

CITY           SKY/WX    TMP DP  RH WIND       PRES   REMARKS
TULSA          CLOUDY    61  55  81 SE5       30.17R
PONCA CITY     CLOUDY    56  55  97 SE7       30.16R FOG
MCALESTER      LGT RAIN  61  59  93 MISG      30.17S
OKLAHOMA CITY  DRIZZLE   56  55  97 SE12      30.15R FOG

......IOWA............

CITY           SKY/WX    TMP DP  RH WIND       PRES   REMARKS
DES MOINES     CLOUDY    64  46  52 CALM      30.22S
QUAD CITIES    CLOUDY    59  48  67 SE3       30.22S

......ILLINOIS........

CITY           SKY/WX    TMP DP  RH WIND       PRES   REMARKS
QUINCY         MOCLDY    62  54  74 S3        30.24F
CHICAGO        CLOUDY    52  32  46 E7        30.29R



USA.gov is the U.S. government's official web portal to all federal, state and local government web resources and services.